| time (UTC) | temp C | wind direction | speed KPH | gust KPH | rain 1hr cm | rain 24hr cm | rain mn cm | humidity % | barometer mb |
| 20260504130526 | 11 | 0.0 | 0.0 | 0.00 | 0.00 | 0.00 | 59 | 1013.4 | |
| 20260504110500 | 7 | 0.0 | 0.0 | 0.00 | 0.00 | 0.00 | 77 | 1013.7 | |
| 20260504100431 | 8 | 0.0 | 0.0 | 0.00 | 0.00 | 0.00 | 75 | 1013.7 | |
| 20260504081431 | 6 | 0.0 | 0.0 | 0.00 | 0.00 | 0.00 | 84 | 1013.8 | |
| 20260504080930 | 6 | 0.0 | 0.0 | 0.00 | 0.00 | 0.00 | 84 | 1013.8 | |
| 20260504080431 | 6 | 0.0 | 0.0 | 0.00 | 0.00 | 0.00 | 84 | 1013.9 | |
| 20260504045911 | 5 | 0.0 | 0.0 | 0.00 | 0.00 | 0.00 | 81 | 1014.5 | |
| 20260504045412 | 5 | 0.0 | 0.0 | 0.00 | 0.00 | 0.00 | 80 | 1014.6 | |
| 20260504044911 | 5 | 0.0 | 0.0 | 0.00 | 0.00 | 0.00 | 80 | 1014.5 | |
| 20260504044411 | 5 | 0.0 | 0.0 | 0.00 | 0.00 | 0.00 | 79 | 1014.5 | |
| 20260504043913 | 5 | 0.0 | 0.0 | 0.00 | 0.00 | 0.00 | 79 | 1014.4 | |
| 20260504042410 | 6 | 0.0 | 0.0 | 0.00 | 0.00 | 0.00 | 78 | 1014.4 | |
| 20260504041910 | 6 | 0.0 | 0.0 | 0.00 | 0.00 | 0.00 | 77 | 1014.4 | |
| 20260504041411 | 6 | 0.0 | 0.0 | 0.00 | 0.00 | 0.00 | 76 | 1014.4 | |
| 20260504035913 | 6 | 0.0 | 0.0 | 0.00 | 0.00 | 0.00 | 75 | 1014.4 | |
| 20260504035410 | 6 | 0.0 | 0.0 | 0.00 | 0.00 | 0.00 | 74 | 1014.4 | |
| 20260504034910 | 6 | 0.0 | 0.0 | 0.00 | 0.00 | 0.00 | 72 | 1014.5 | |
| 20260504034409 | 6 | 0.0 | 0.0 | 0.00 | 0.00 | 0.00 | 70 | 1014.4 | |
| 20260504033909 | 6 | 0.0 | 0.0 | 0.00 | 0.00 | 0.00 | 70 | 1014.4 | |
| 20260504032909 | 6 | 0.0 | 0.0 | 0.00 | 0.00 | 0.00 | 70 | 1014.2 | |
| 20260504032409 | 7 | 0.0 | 0.0 | 0.00 | 0.00 | 0.00 | 70 | 1014.2 | |
| 20260504031909 | 7 | 0.0 | 0.0 | 0.00 | 0.00 | 0.00 | 70 | 1014.2 | |
| 20260504030909 | 7 | 0.0 | 0.0 | 0.00 | 0.00 | 0.00 | 67 | 1014.2 | |
| 20260504030409 | 7 | 0.0 | 0.0 | 0.00 | 0.00 | 0.00 | 66 | 1014.1 | |
| 20260504025909 | 7 | 0.0 | 0.0 | 0.00 | 0.00 | 0.00 | 65 | 1014.0 | |
| 20260504025410 | 7 | 0.0 | 0.0 | 0.00 | 0.00 | 0.00 | 65 | 1014.0 | |
| 20260504024408 | 8 | 0.0 | 0.0 | 0.00 | 0.00 | 0.00 | 64 | 1013.8 | |
| 20260504023908 | 8 | 0.0 | 0.0 | 0.00 | 0.00 | 0.00 | 63 | 1013.9 | |
| 20260504023409 | 8 | 0.0 | 0.0 | 0.00 | 0.00 | 0.00 | 63 | 1013.9 | |
| 20260504022908 | 8 | 0.0 | 0.0 | 0.00 | 0.00 | 0.00 | 62 | 1013.9 | |
| 20260504022409 | 8 | 0.0 | 0.0 | 0.00 | 0.00 | 0.00 | 62 | 1013.8 | |
| 20260504021908 | 8 | 0.0 | 0.0 | 0.00 | 0.00 | 0.00 | 61 | 1013.8 | |
| 20260504021409 | 8 | 0.0 | 0.0 | 0.00 | 0.00 | 0.00 | 59 | 1013.8 | |
| 20260504020407 | 9 | 0.0 | 0.0 | 0.00 | 0.00 | 0.00 | 56 | 1013.7 | |
| 20260504015907 | 9 | 0.0 | 0.0 | 0.00 | 0.00 | 0.00 | 56 | 1013.8 | |
| 20260504015407 | 9 | 0.0 | 0.0 | 0.00 | 0.00 | 0.00 | 55 | 1013.8 | |
| 20260504013906 | 10 | 0.0 | 0.0 | 0.00 | 0.00 | 0.00 | 53 | 1013.6 | |
| 20260504013407 | 10 | 0.0 | 0.0 | 0.00 | 0.00 | 0.00 | 52 | 1013.7 | |
| 20260504012906 | 10 | 0.0 | 0.0 | 0.00 | 0.00 | 0.00 | 52 | 1013.7 | |
| 20260504012406 | 10 | 0.0 | 0.0 | 0.00 | 0.00 | 0.00 | 51 | 1013.6 | |
| 20260504011906 | 11 | 0.0 | 0.0 | 0.00 | 0.00 | 0.00 | 51 | 1013.6 | |
| 20260504011407 | 11 | 0.0 | 0.0 | 0.00 | 0.00 | 0.00 | 52 | 1013.5 | |
| 20260504010906 | 11 | 0.0 | 0.0 | 0.00 | 0.00 | 0.00 | 50 | 1013.5 | |
| 20260504010406 | 11 | 0.0 | 0.0 | 0.00 | 0.00 | 0.00 | 48 | 1013.5 | |
| 20260504005905 | 11 | 0.0 | 0.0 | 0.00 | 0.00 | 0.00 | 47 | 1013.5 | |
| 20260504005405 | 12 | 0.0 | 0.0 | 0.00 | 0.00 | 0.00 | 47 | 1013.3 | |
| 20260504004906 | 12 | 0.0 | 0.0 | 0.00 | 0.00 | 0.00 | 46 | 1013.4 | |
| 20260504004405 | 12 | 0.0 | 0.0 | 0.00 | 0.00 | 0.00 | 47 | 1013.3 | |
| 20260504003905 | 13 | 0.0 | 0.0 | 0.00 | 0.00 | 0.00 | 45 | 1013.3 | |
| 20260504003405 | 13 | 0.0 | 0.0 | 0.00 | 0.00 | 0.00 | 44 | 1013.3 | |
| 20260504002905 | 13 | 0.0 | 0.0 | 0.00 | 0.00 | 0.00 | 43 | 1013.2 | |
| 20260504001904 | 13 | 0.0 | 0.0 | 0.00 | 0.00 | 0.00 | 39 | 1013.2 | |
| 20260504001405 | 14 | 0.0 | 0.0 | 0.00 | 0.00 | 0.00 | 40 | 1013.1 | |
| 20260504000904 | 14 | 0.0 | 0.0 | 0.00 | 0.00 | 0.00 | 38 | 1013.0 | |
| 20260504000405 | 15 | 0.0 | 0.0 | 0.00 | 0.00 | 0.00 | 38 | 1013.0 | |
| 20260503235904 | 15 | 0.0 | 0.0 | 0.00 | 0.00 | 0.00 | 36 | 1013.0 | |
| 20260503235407 | 15 | 0.0 | 0.0 | 0.00 | 0.00 | 0.00 | 34 | 1013.0 | |
| 20260503234904 | 15 | 0.0 | 0.0 | 0.00 | 0.00 | 0.00 | 32 | 1012.9 | |
| 20260503234405 | 15 | 0.0 | 0.0 | 0.00 | 0.00 | 0.00 | 33 | 1012.8 | |
| 20260503233906 | 15 | 0.0 | 0.0 | 0.00 | 0.00 | 0.00 | 32 | 1012.9 | |
| 20260503233404 | 15 | 0.0 | 0.0 | 0.00 | 0.00 | 0.00 | 31 | 1012.8 | |
| 20260503232903 | 15 | 0.0 | 0.0 | 0.00 | 0.00 | 0.00 | 31 | 1012.9 | |
| 20260503232403 | 16 | 0.0 | 0.0 | 0.00 | 0.00 | 0.00 | 32 | 1012.7 | |
| 20260503231906 | 16 | 0.0 | 0.0 | 0.00 | 0.00 | 0.00 | 30 | 1012.7 | |
| 20260503231403 | 16 | 0.0 | 0.0 | 0.00 | 0.00 | 0.00 | 30 | 1012.7 | |
| 20260503230905 | 16 | 0.0 | 0.0 | 0.00 | 0.00 | 0.00 | 30 | 1012.5 | |
| 20260503230403 | 16 | 0.0 | 0.0 | 0.00 | 0.00 | 0.00 | 29 | 1012.6 | |
| 20260503225403 | 16 | 0.0 | 0.0 | 0.00 | 0.00 | 0.00 | 28 | 1012.7 | |
| 20260503224902 | 17 | 0.0 | 0.0 | 0.00 | 0.00 | 0.00 | 30 | 1012.7 | |
| 20260503224402 | 17 | 0.0 | 0.0 | 0.00 | 0.00 | 0.00 | 29 | 1012.7 | |
| 20260503223902 | 17 | 0.0 | 0.0 | 0.00 | 0.00 | 0.00 | 28 | 1012.7 | |
| 20260503223403 | 17 | 0.0 | 0.0 | 0.00 | 0.00 | 0.00 | 28 | 1012.7 | |
| 20260503222902 | 17 | 0.0 | 0.0 | 0.00 | 0.00 | 0.00 | 28 | 1012.8 | |
| 20260503222402 | 17 | 0.0 | 0.0 | 0.00 | 0.00 | 0.00 | 27 | 1012.8 | |
| 20260503221905 | 17 | 0.0 | 0.0 | 0.00 | 0.00 | 0.00 | 29 | 1012.8 | |
| 20260503221402 | 17 | 0.0 | 0.0 | 0.00 | 0.00 | 0.00 | 28 | 1012.7 | |
| 20260503220903 | 17 | 0.0 | 0.0 | 0.00 | 0.00 | 0.00 | 29 | 1012.9 | |
| 20260503220402 | 17 | 0.0 | 0.0 | 0.00 | 0.00 | 0.00 | 28 | 1012.8 | |
| 20260503215902 | 17 | 0.0 | 0.0 | 0.00 | 0.00 | 0.00 | 28 | 1012.8 | |
| 20260503215402 | 17 | 0.0 | 0.0 | 0.00 | 0.00 | 0.00 | 29 | 1012.8 | |
| 20260503214902 | 17 | 0.0 | 0.0 | 0.00 | 0.00 | 0.00 | 28 | 1012.8 | |
| 20260503214403 | 17 | 0.0 | 0.0 | 0.00 | 0.00 | 0.00 | 27 | 1012.9 | |
| 20260503213902 | 17 | 0.0 | 0.0 | 0.00 | 0.00 | 0.00 | 28 | 1012.9 | |
| 20260503213402 | 17 | 0.0 | 0.0 | 0.00 | 0.00 | 0.00 | 26 | 1012.9 | |
| 20260503212902 | 17 | 0.0 | 0.0 | 0.00 | 0.00 | 0.00 | 27 | 1013.0 | |
| 20260503212401 | 18 | 0.0 | 0.0 | 0.00 | 0.00 | 0.00 | 26 | 1013.0 | |
| 20260503211400 | 17 | 0.0 | 0.0 | 0.00 | 0.00 | 0.00 | 29 | 1012.9 | |
| 20260503210900 | 17 | 0.0 | 0.0 | 0.00 | 0.00 | 0.00 | 29 | 1012.9 | |
| 20260503210401 | 17 | 0.0 | 0.0 | 0.00 | 0.00 | 0.00 | 28 | 1013.0 | |
| 20260503205901 | 17 | 0.0 | 0.0 | 0.00 | 0.00 | 0.00 | 27 | 1013.0 | |
| 20260503205401 | 17 | 0.0 | 0.0 | 0.00 | 0.00 | 0.00 | 29 | 1013.0 | |
| 20260503204900 | 17 | 0.0 | 0.0 | 0.00 | 0.00 | 0.00 | 28 | 1012.9 | |
| 20260503202340 | 17 | 0.0 | 0.0 | 0.00 | 0.00 | 0.00 | 29 | 1013.0 | |
| 20260503201836 | 17 | 0.0 | 0.0 | 0.00 | 0.00 | 0.00 | 30 | 1013.2 | |
| 20260503201337 | 17 | 0.0 | 0.0 | 0.00 | 0.00 | 0.00 | 31 | 1013.3 | |
| 20260503200837 | 17 | 0.0 | 0.0 | 0.00 | 0.00 | 0.00 | 30 | 1013.4 | |
| 20260503200337 | 17 | 0.0 | 0.0 | 0.00 | 0.00 | 0.00 | 31 | 1013.4 | |
| 20260503195840 | 17 | 0.0 | 0.0 | 0.00 | 0.00 | 0.00 | 32 | 1013.3 | |
| 20260503195335 | 17 | 0.0 | 0.0 | 0.00 | 0.00 | 0.00 | 32 | 1013.6 | |
| 20260503194831 | 16 | 0.0 | 0.0 | 0.00 | 0.00 | 0.00 | 33 | 1013.5 | |
| 20260503194332 | 16 | 0.0 | 0.0 | 0.00 | 0.00 | 0.00 | 29 | 1013.5 | |
| 20260503193831 | 16 | 0.0 | 0.0 | 0.00 | 0.00 | 0.00 | 30 | 1013.7 | |
| 20260503192831 | 16 | 0.0 | 0.0 | 0.00 | 0.00 | 0.00 | 31 | 1014.0 | |
| 20260503191831 | 16 | 0.0 | 0.0 | 0.00 | 0.00 | 0.00 | 31 | 1014.0 | |
| 20260503191331 | 16 | 0.0 | 0.0 | 0.00 | 0.00 | 0.00 | 34 | 1013.9 | |
| 20260503190832 | 16 | 0.0 | 0.0 | 0.00 | 0.00 | 0.00 | 33 | 1014.0 | |
| 20260503190332 | 16 | 0.0 | 0.0 | 0.00 | 0.00 | 0.00 | 34 | 1014.2 | |
| 20260503185331 | 16 | 0.0 | 0.0 | 0.00 | 0.00 | 0.00 | 31 | 1014.2 | |
| 20260503184831 | 16 | 0.0 | 0.0 | 0.00 | 0.00 | 0.00 | 34 | 1014.5 | |
| 20260503184332 | 16 | 0.0 | 0.0 | 0.00 | 0.00 | 0.00 | 36 | 1014.4 | |
| 20260503183831 | 16 | 0.0 | 0.0 | 0.00 | 0.00 | 0.00 | 35 | 1014.4 | |
| 20260503183333 | 16 | 0.0 | 0.0 | 0.00 | 0.00 | 0.00 | 35 | 1014.5 | |
| 20260503182831 | 15 | 0.0 | 0.0 | 0.00 | 0.00 | 0.00 | 35 | 1014.7 | |
| 20260503182331 | 15 | 0.0 | 0.0 | 0.00 | 0.00 | 0.00 | 39 | 1014.8 | |
| 20260503181831 | 15 | 0.0 | 0.0 | 0.00 | 0.00 | 0.00 | 36 | 1014.7 | |
| 20260503181331 | 15 | 0.0 | 0.0 | 0.00 | 0.00 | 0.00 | 36 | 1014.7 | |
| 20260503180832 | 14 | 0.0 | 0.0 | 0.00 | 0.00 | 0.00 | 35 | 1014.7 | |
| 20260503175831 | 14 | 0.0 | 0.0 | 0.00 | 0.00 | 0.00 | 36 | 1014.8 | |
| 20260503174831 | 14 | 0.0 | 0.0 | 0.00 | 0.00 | 0.00 | 36 | 1015.0 | |
| 20260503174332 | 13 | 0.0 | 0.0 | 0.00 | 0.00 | 0.00 | 37 | 1014.9 | |
| 20260503173332 | 13 | 0.0 | 0.0 | 0.00 | 0.00 | 0.00 | 37 | 1015.0 | |
| 20260503172831 | 13 | 0.0 | 0.0 | 0.00 | 0.00 | 0.00 | 36 | 1015.1 | |
| 20260503172331 | 13 | 0.0 | 0.0 | 0.00 | 0.00 | 0.00 | 35 | 1015.1 | |
| 20260503171831 | 13 | 0.0 | 0.0 | 0.00 | 0.00 | 0.00 | 36 | 1015.2 | |
| 20260503171331 | 13 | 0.0 | 0.0 | 0.00 | 0.00 | 0.00 | 37 | 1015.1 | |
| 20260503170334 | 13 | 0.0 | 0.0 | 0.00 | 0.00 | 0.00 | 37 | 1015.2 | |
| 20260503150832 | 11 | 0.0 | 0.0 | 0.00 | 0.00 | 0.00 | 42 | 1016.0 | |
| 20260503150331 | 11 | 0.0 | 0.0 | 0.00 | 0.00 | 0.00 | 43 | 1015.7 |